Flag for Venezuela Weather past 2 weeks in Valencia, Venezuela

Now
79 °F

Thundershowers. Passing clouds.


Feels Like: 82 °F
Forecast: 72 / 88 °F
Wind: 13 mph from Southeast

Location: Valencia Airport


UV Index: 10 (Very high)

Visibility: N/A


Pressure: 29.92 "Hg

Humidity: 79%

Dew point: 72 °F

Location of ValenciaLocation

Historic Weather in Valencia

°F

Valencia temperature yesterday

Maximum temperature yesterday: 93 °F (at 1:30 PM)
Minimum temperature yesterday: 79 °F (at 5:30 AM)
Average temperature yesterday: 86 °F

Past Weeks' High & Low Weather Summary

 TemperatureHumidityPressure
High95 °F (Apr 9, 2:30 PM)79% (Apr 16, 4:30 AM)30.07 "Hg (Apr 16, 4:30 AM)
Low73 °F (Apr 12, 1:30 AM)28% (Apr 9, 2:30 PM)29.80 "Hg (Apr 14, 3:30 PM)
Average84 °F58%29.94 "Hg
* Reported Apr 8 10:30 PM — Apr 23 10:30 PM, Valencia, Weather by CustomWeather, © 2014

Note: Actual official high and low records may vary slightly from our data, if they occured in-between our weather recording intervals... More about our weather records

Advertising

Historic Weather Conditions — Data for Previous 24 hours

 ConditionsComfort  
Time TempWeatherWind HumidityBarometerVisibility
10:30 PM
Apr 23
82 °FPassing clouds.3 mph70%29.95 "HgN/A
9:30 PM82 °FPassing clouds.3 mph70%29.92 "HgN/A
7:30 PM86 °FPassing clouds.6 mph59%29.86 "HgN/A
6:30 PM90 °FPassing clouds.7 mph46%29.83 "HgN/A
5:30 PM91 °FPartly sunny.6 mph44%29.80 "HgN/A
4:30 PM93 °FPassing clouds.5 mph41%29.80 "HgN/A
3:30 PM93 °FScattered clouds.6 mph39%29.80 "HgN/A
2:30 PM93 °FPartly sunny.6 mph39%29.86 "HgN/A
1:30 PM93 °FScattered clouds.6 mph44%29.89 "HgN/A
12:30 PM90 °FScattered clouds.7 mph49%29.95 "HgN/A
11:30 AM88 °FScattered clouds.7 mph55%29.95 "HgN/A
10:30 AM86 °FPartly sunny.7 mph59%29.98 "HgN/A
9:30 AM82 °FPartly sunny.5 mph66%29.98 "HgN/A
8:30 AM81 °FOvercast.9 mph70%29.95 "HgN/A
7:30 AM81 °FPartly sunny.No wind74%29.95 "HgN/A
6:30 AM81 °FPartly sunny.No wind70%29.92 "HgN/A
5:30 AM79 °FPassing clouds.3 mph70%29.92 "HgN/A
Weather by CustomWeather, © 2014

See weather overview